Regional Weather Roundup
Issued by NWS Newport/Morehead, NC

Home | Current Version | Previous Version | Text Only | Print | Product List | Glossary On
Versions: 1 2 3 4 5 6 7 8 9 10 11 12 13 14 15 16 17 18 19 20 21 22 23 24 25 26 27 28 29 30 31 32 33 34 35 36 37 38 39 40 41 42 43 44 45 46 47 48 49 50
000
ASUS42 KMHX 141522
RWRMHX
WEATHER ROUNDUP FOR EASTERN NORTH CAROLINA
NATIONAL WEATHER SERVICE NEWPORT/MOREHEAD CITY NC
1100 AM EDT MON JUL 14 2014

NOTE: "FAIR" INDICATES FEW OR NO CLOUDS BELOW 12,000 FEET
WITH NO SIGNIFICANT WEATHER AND/OR OBSTRUCTIONS TO VISIBILITY

NCZ015>017-031-032-045>047-102-103-141600-
NORTH COAST

CITY           SKY/WX    TMP DP  RH WIND       PRES   REMARKS
EDENTON        SUNNY     84  73  70 SW8       29.99F
ELIZABETH CITY SUNNY     84  75  74 S10       29.99F
KITTY HAWK     MOSUNNY   85  72  65 SW5       29.99F
MANTEO         NOT AVBL

$$

NCZ045>047-081-094-103-104-141600-
CENTRAL COAST

CITY           SKY/WX    TMP DP  RH WIND       PRES   REMARKS
FRISCO         MOSUNNY   83  74  74 SW6       30.04R
SWANQUARTER      N/A     86 N/A N/A CALM      29.97S

$$

NCZ095-097-098-100-101-141600-
SOUTHERN COAST

CITY           SKY/WX    TMP DP  RH WIND       PRES   REMARKS
BEAUFORT       SUNNY     84  74  71 SW8       30.03S
CEDAR ISLAND     N/A     86 N/A N/A W1G9      30.06S
JACKSONVILLE   MOSUNNY   85  74  69 CALM      30.03R
NEWPORT        NOT AVBL
PINEY ISLAND   SUNNY     86  74  67 W9        30.02S
WILMINGTON     MOSUNNY   86  74  67 W7        30.03S


$$

NCZ011>013-027>030-043-044-078>080-089-090>093-098-141600-
COASTAL PLAIN

CITY           SKY/WX    TMP DP  RH WIND       PRES   REMARKS
AHOSKIE        SUNNY     85  74  70 S3        29.98S
CLINTON        SUNNY     86  75  69 W3        30.01F
ELIZABETHTOWN  SUNNY     86  73  64 W7        30.02F
GOLDSBORO      MOSUNNY   86  76  72 SW8       29.98F
GREENVILLE     SUNNY     86  73  66 W7        30.01F
HAVELOCK       MOSUNNY   85  71  63 SW6       30.03S
KENANSVILLE    SUNNY     86  72  63 SW6       30.03R
KINSTON        SUNNY     88  73  62 SW6       30.01F
NEW BERN       SUNNY     88  72  58 SW7       30.03S
RICHLANDS      SUNNY     88  73  62 SW9       30.02S
ROANOKE RAPIDS NOT AVBL
ROCKY MOUNT    MOSUNNY   86  73  65 SW9       29.99S
WASHINGTON     MOSUNNY   84  73  69 SW6       30.01S
WHITEVILLE     SUNNY     85  73  66 SW6       30.03S

$$

AMZ130-135-150-152-154-156-158-170-250-252-270-ANZ085-086-088-633-658-670-141600-
MARINE OBSERVATIONS

STATION/POSITION TIME  TEMP    WIND        PRES    WAVE   SWELL
                       AIR SEA DIR/SP/G            HT/PER HT/PER
                 (UTC) (F)     (DEG/KT/KT) (MB)    (FT/S) (FT/S)
CHESAPEAKE LIGHT NOT AVBL
BUOY 44014       1500   78 76  190/ 12/ 14 1015.7    3/ 8   2/ 8
DUCK             1500   81 61  210/ 11/ 13 1015.1
2E DUCK          1500                        N/A     2/ 8
OREGON INLET     1500   81 82  190/ 12/ 13 1016.4
BUOY 44095       1500      77                N/A     3/ 8
HATTERAS CG      1500   82 82  180/  4/  8 1017.5
DIAMOND BUOY     1500          VRB 10/ 12  1017.1    3/ 9   2/ 9
17S OCRACOKE INL NOT AVBL
CAPE LOOKOUT     1500   81     230/ 10/ 13 1017.1
BEAUFORT LAB     1500   83 82  220/  5/ 11 1016.6
30 SE NEW RIVER  1500   81 82  240/  8/ 10 1017.8    3/ 9   3/ 9
5 SE WRIGHTSVILL 1400   79 83  250/  8/ 10 1017.7
FRYING PAN BUOY  NOT AVBL
BUOY 41001       NOT AVBL
BUOY 41002       1448   82 83  240/ 12/ 14 1020.0    3/10   2/10
BUOY 41004       1500   81 81  240/ 12/ 14 1017.3    3/ 5   2/ 9

$$


USA.gov is the U.S. government's official web portal to all federal, state and local government web resources and services.